Location: Recife
(8.0585°S, 34.8848°W)
Time: 21:22:24
(UTC-03:00)

A-11 Canister half - Pass Details

Date: 15 April 2026
Orbit: 1515 x 1684 km, 47.2° (Epoch: 16 May)

Event Time Altitude Azimuth Distance (km) Brightness Sun altitude
Rises 01:46:56 0° 226° (SW) 4,719 - -53.6°
Reaches altitude 10° 01:50:03 10° 229° (SW) 3,716 - -52.8°
Maximum altitude 01:59:16 66° 309° (NW) 1,629 - -50.6°
Exits shadow 02:05:56 21° 26° (NNE) 2,907 10.6 -48.9°
Drops below altitude 10° 02:08:22 10° 30° (NNE) 3,664 11.2 -48.3°
Sets 02:11:26 0° 33° (NNE) 4,650 11.9 -47.6°
